This demonstration page uses our WeatherBlox Daily Observations layout. Learn more.

Left ArrowRight Arrow

Hourly Observations for July 21, 2018

Temp ( °F °C ) Dew Point ( °F °C ) Humidity (%) Winds ( mph kmh ) Pressure ( in mb ) Visibility ( mi km ) Precip ( " mm )
12:53 am 00:53 Clear 67 19.4 64 17.8 91 91 Calm 30.02 1017 10 16 0.00 0.00
1:53 am 01:53 Clear 68 20 65 18.3 90 90 Calm 30.02 1017 10 16 0.00 0.00
2:53 am 02:53 Clear 65 18.3 63 17.2 93 93 WSW 3 6 30.03 1017 8 13 0.00 0.00
3:14 am 03:14 Partly Cloudy 64 17.8 63 17.2 96 96 Calm 30.03 1017 8 13 0.00 0.00
3:53 am 03:53 Clear 64 17.8 62 16.7 93 93 Calm 30.01 1016 10 16 0.00 0.00
4:33 am 04:33 Partly Cloudy 63 17.2 61 16.1 93 93 NNE 3 6 30.03 1017 10 16 0.00 0.00
4:37 am 04:37 Mostly Cloudy with Mist and Fog 62 16.7 61 16.1 96 96 NNE 3 6 30.03 1017 3 4 0.00 0.00
4:53 am 04:53 Mostly Cloudy with Mist and Fog 63 17.2 62 16.7 97 97 Calm 30.02 1017 1 1 0.00 0.00
5:03 am 05:03 Mostly Cloudy with Mist and Fog 65 18.3 65 18.3 100 100 Calm 30.03 1017 2 3 0.00 0.00
5:10 am 05:10 Partly Cloudy with Mist and Fog 63 17 63 17 100 100 Calm 30.03 1017 2 2 0.00 0.00
5:29 am 05:29 Clear with Mist and Fog 64 18 63 17 94 94 Calm 30.03 1017 3 5 0.00 0.00
5:53 am 05:53 Clear with Mist and Fog 63 17.2 62 16.7 97 97 Calm 30.02 1017 4 6 0.00 0.00
6:53 am 06:53 Sunny with Mist and Fog 64 17.8 62 16.7 93 93 undefined N/A 30.02 1017 6 10 0.00 0.00
7:53 am 07:53 Sunny with Mist and Fog 69 20.6 67 19.4 93 93 NE 5 7 30.04 1017 4 6 0.00 0.00
8:53 am 08:53 Sunny 73 22.8 68 20 84 84 ENE 6 9 30.04 1017 10 16 0.00 0.00
9:53 am 09:53 Partly Cloudy 76 24.4 65 18.3 69 69 E 5 7 30.08 1019 10 16 0.00 0.00
10:01 am 10:01 Mostly Cloudy 77 25 65 18.3 66 66 SSE 5 7 30.00 1016 10 16 0.00 0.00
10:51 am 10:51 Partly Cloudy 79 26 64 18 61 61 S 7 11 30.00 1016 10 16 0.00 0.00
10:53 am 10:53 Mostly Cloudy 78 25.6 65 18.3 64 64 VRB 5 7 30.08 1019 10 16 0.00 0.00
11:10 am 11:10 Partly Cloudy 79 26 66 19 65 65 ESE 6 9 30.00 1016 10 16 0.00 0.00
11:53 am 11:53 Sunny 81 27.2 66 18.9 61 61 VRB 5 7 30.08 1019 10 16 0.00 0.00
12:53 pm 12:53 Partly Cloudy 81 27.2 66 18.9 61 61 S 3 6 30.07 1018 10 16 0.00 0.00
1:53 pm 13:53 Mostly Cloudy 83 28.3 67 19.4 59 59 VRB 5 7 30.05 1018 10 16 0.00 0.00
2:53 pm 14:53 Cloudy 83 28.3 68 20 61 61 undefined N/A 30.04 1017 10 16 0.00 0.00
3:53 pm 15:53 Mostly Sunny 85 29.4 68 20 57 57 VRB 7 11 30.03 1017 10 16 0.00 0.00
4:53 pm 16:53 Mostly Sunny 84 28.9 68 20 59 59 VRB 5 7 30.02 1017 7 11 0.00 0.00
5:53 pm 17:53 Sunny 85 29.4 66 18.9 53 53 E 6 9 30.01 1016 10 16 0.00 0.00
6:53 pm 18:53 Sunny 83 28.3 68 20 61 61 ESE 8 13 30.00 1016 10 16 0.00 0.00
7:53 pm 19:53 Sunny 81 27.2 68 20 65 65 E 6 9 30.00 1016 10 16 0.00 0.00
8:53 pm 20:53 Sunny 77 25 68 20 74 74 E 7 11 30.00 1016 10 16 0.00 0.00
9:53 pm 21:53 Clear 76 24.4 67 19.4 74 74 E 7 11 30.01 1016 10 16 0.00 0.00
10:53 pm 22:53 Clear 74 23.3 67 19.4 79 79 E 6 9 30.02 1017 10 16 0.00 0.00
11:53 pm 23:53 Clear 74 23.3 66 18.9 76 76 E 6 9 30.03 1017 10 16 0.00 0.00

Powered by AerisWeather